Date,TemperatureHighF,TemperatureAvgF,TemperatureLowF,DewpointHighF,DewpointAvgF,DewpointLowF,HumidityHigh,HumidityAvg,HumidityLow,PressureMaxIn,PressureMinIn,WindSpeedMaxMPH,WindSpeedAvgMPH,GustSpeedMaxMPH,PrecipitationSumIn
2013-10-1,57.8,52.8,49.1,49.2,46.9,43.2,92,81,59,30.12,29.93,22,10,28,0.13
2013-10-2,54.3,51.8,50.3,49.0,47.7,45.9,93,86,74,30.19,30.07,20,5,23,0.24
2013-10-3,57.1,52.2,47.9,48.5,47.0,45.5,93,83,66,30.47,30.19,10,3,11,0.00
2013-10-4,61.6,51.1,45.1,50.6,46.8,43.1,98,86,62,30.50,30.36,8,2,9,0.00
2013-10-5,68.9,55.8,46.9,54.6,48.1,44.7,95,77,47,30.38,30.14,10,2,11,0.00
2013-10-6,72.6,57.6,46.7,55.3,48.6,43.7,97,75,38,30.14,29.89,12,3,19,0.02
2013-10-7,61.6,56.1,54.0,52.4,49.6,44.2,92,79,55,30.02,29.90,20,8,24,0.07
2013-10-8,55.4,51.8,46.5,49.2,46.4,42.9,93,82,65,30.10,29.98,21,4,27,0.31
2013-10-9,57.7,48.6,41.7,47.5,44.3,40.8,97,86,66,30.16,29.97,8,2,8,0.00
2013-10-10,56.8,52.1,47.7,50.2,47.5,44.9,95,85,72,30.09,29.95,10,3,12,0.00
2013-10-11,54.5,51.6,49.9,50.7,49.2,48.0,96,92,84,30.16,30.08,5,2,8,0.07
2013-10-12,55.2,51.4,47.2,49.7,48.3,45.5,97,89,75,30.23,30.08,16,4,18,0.04
2013-10-13,56.1,49.4,45.0,48.7,46.3,44.0,97,89,73,30.38,30.23,12,3,13,0.00
2013-10-14,57.9,48.3,41.6,48.4,44.5,40.8,98,88,63,30.45,30.38,11,3,12,0.00
2013-10-15,59.5,49.9,43.6,51.4,46.8,43.0,98,90,72,30.41,30.19,8,3,9,0.00
2013-10-16,54.4,51.3,47.8,49.3,48.1,46.3,96,89,82,30.22,30.16,13,5,16,0.00
2013-10-17,56.5,50.6,47.6,50.1,47.8,46.2,96,90,78,30.30,30.22,10,4,11,0.00
2013-10-18,57.6,48.2,43.1,51.8,46.2,42.5,98,93,79,30.27,30.16,8,3,10,0.00
2013-10-19,50.2,47.3,44.7,48.1,45.9,44.0,98,95,91,30.22,30.16,9,3,9,0.00
2013-10-20,50.7,48.2,46.8,48.1,46.5,45.5,97,94,90,30.23,30.17,10,4,11,0.00
2013-10-21,51.1,48.5,46.6,48.7,47.2,45.5,97,95,91,30.19,30.12,10,4,12,0.00
2013-10-22,59.7,49.2,46.3,52.5,47.7,45.7,98,95,77,30.14,30.05,10,4,12,0.00
2013-10-23,58.0,48.3,44.0,52.9,47.2,43.7,99,96,83,30.07,29.99,8,2,10,0.00
2013-10-24,50.8,47.9,45.1,49.2,47.1,44.8,99,97,92,30.15,30.04,7,2,9,0.00
2013-10-25,52.6,49.4,47.1,49.5,47.6,46.0,98,94,87,30.34,30.15,10,3,13,0.00
2013-10-26,52.8,50.7,47.2,47.9,46.8,45.7,96,87,78,30.35,30.21,14,5,16,0.00
2013-10-27,55.4,50.2,46.5,49.5,46.8,44.8,97,88,73,30.22,29.91,20,6,26,0.12
2013-10-28,55.9,50.7,44.2,45.2,39.6,33.3,96,68,43,29.97,29.89,27,7,31,0.00
2013-10-29,56.9,45.4,37.8,42.7,38.6,35.4,95,79,48,30.05,29.96,9,2,12,0.00
2013-10-30,56.6,48.1,39.5,47.8,42.3,37.8,96,81,66,30.14,30.05,14,5,20,0.01
2013-10-31,54.9,52.2,50.3,51.0,48.3,43.5,95,87,72,30.28,30.11,14,4,23,0.00